This demonstration page uses our WeatherBlox Daily Observations layout. Learn more.

Hourly Observations for April 6, 2019

Temp ( °F °C ) Dew Point ( °F °C ) Humidity (%) Winds ( mph kmh ) Pressure ( in mb ) Visibility ( mi km ) Precip ( " mm )
12:15 am 00:15 Clear 59 15.2 53 11.4 78 78 SSE 18 30 29.76 1008 10 16.0934 0 0
12:35 am 00:35 Clear 59 15 52 11.3 79 79 S 17 28 29.76 1008 10 16.0934 0 0
12:55 am 00:55 Clear 58 14.5 52 11.1 80 80 S 17 28 29.76 1008 10 16.0934 0 0
1:15 am 01:15 Clear 57 14.1 52 11.2 83 83 S 18 30 29.77 1008 10 16.0934 0 0
1:35 am 01:35 Clear 57 14.1 52 11.3 83 83 S 17 28 29.76 1008 10 16.0934 0 0
1:55 am 01:55 Clear 57 13.7 52 11.3 86 86 S 17 28 29.76 1008 10 16.0934 0 0
2:15 am 02:15 Clear 56 13.5 52 11.3 87 87 S 17 28 29.76 1008 10 16.0934 0 0
2:35 am 02:35 Clear 56 13.1 52 11.1 88 88 S 17 28 29.77 1008 10 16.0934 0 0
2:55 am 02:55 Clear 56 13.5 53 11.5 88 88 S 16 26 29.75 1008 10 16.0934 0 0
3:15 am 03:15 Clear 57 13.7 53 11.5 87 87 S 18 30 29.75 1007 10 16.0934 0 0
3:35 am 03:35 Partly Cloudy 57 13.7 52 11.3 86 86 S 17 28 29.75 1007 10 16.0934 0 0
3:55 am 03:55 Mostly Cloudy 57 13.8 52 11.2 84 84 S 16 26 29.76 1008 10 16.0934 0 0
4:15 am 04:15 Partly Cloudy 57 13.7 52 11 84 84 S 15 24 29.75 1007 10 16.0934 0 0
4:35 am 04:35 Partly Cloudy 56 13.6 52 11.1 85 85 S 13 20 29.74 1007 10 16.0934 0 0
4:55 am 04:55 Partly Cloudy 56 13.5 52 11 85 85 S 14 22 29.76 1008 10 16.0934 0 0
5:15 am 05:15 Clear 56 13.2 52 11 87 87 S 12 19 29.76 1008 10 16.0934 0 0
5:35 am 05:35 Clear 56 13.1 52 11 87 87 S 14 22 29.77 1008 10 16.0934 0 0
5:55 am 05:55 Clear 56 13.1 51 10.8 86 86 S 14 22 29.77 1008 10 16.0934 0 0
6:15 am 06:15 Clear 55 13 51 10.7 86 86 S 13 20 29.78 1008 10 16.0934 0 0
6:35 am 06:35 Clear 55 13 51 10.6 85 85 S 12 19 29.79 1009 10 16.0934 0 0
6:55 am 06:55 Clear 55 12.9 51 10.6 86 86 S 12 19 29.79 1009 10 16.0934 0 0
7:15 am 07:15 Sunny 54 12 51 10.3 89 89 S 8 13 29.8 1009 10 16.0934 0 0
7:35 am 07:35 Sunny 55 12.5 51 10.7 89 89 S 7 11 29.8 1009 10 16.0934 0 0
7:55 am 07:55 Sunny 54 12 51 10.5 91 91 S 9 15 29.81 1009 10 16.0934 0 0
8:15 am 08:15 Sunny 54 12.2 51 10.8 91 91 S 8 13 29.81 1010 10 16.0934 0 0
8:35 am 08:35 Sunny 55 13 52 11 88 88 SSE 10 17 29.81 1009 10 16.0934 0 0
8:55 am 08:55 Sunny 57 13.7 52 11.1 84 84 S 10 17 29.79 1009 10 16.0934 0 0
9:15 am 09:15 Sunny 60 15.3 53 11.4 78 78 S 16 26 29.79 1009 10 16.0934 0 0
9:35 am 09:35 Sunny 61 16.1 52 11 72 72 S 14 22 29.78 1008 10 16.0934 0 0
9:55 am 09:55 Sunny 62 16.7 51 10.7 68 68 SSW 12 19 29.78 1008 10 16.0934 0 0
10:15 am 10:15 Partly Cloudy 62 16.7 51 10.5 67 67 SW 12 19 29.77 1008 10 16.0934 0 0
10:35 am 10:35 Partly Cloudy 62 16.7 51 10.3 66 66 SW 12 19 29.78 1008 10 16.0934 0 0
10:55 am 10:55 Partly Cloudy 63 17.1 51 10.3 64 64 SW 13 20 29.77 1008 10 16.0934 0 0
11:15 am 11:15 Mostly Cloudy 64 17.9 51 10.4 62 62 SW 18 30 29.78 1008 10 16.0934 0 0
11:35 am 11:35 Partly Cloudy 65 18.5 48 9.1 54 54 SW 16 26 29.77 1008 10 16.0934 0 0
11:55 am 11:55 Partly Cloudy 67 19.5 48 8.8 50 50 SW 20 31 29.75 1008 10 16.0934 0 0
12:15 pm 12:15 Mostly Cloudy 67 19.3 48 8.7 50 50 SW 18 30 29.75 1008 10 16.0934 0 0
12:35 pm 12:35 Partly Cloudy 68 20.2 47 8.6 47 47 SSW 21 33 29.75 1007 10 16.0934 0 0
12:55 pm 12:55 Mostly Cloudy 69 20.5 47 8.6 47 47 SW 20 31 29.72 1007 10 16.0934 0 0
1:15 pm 13:15 Partly Cloudy 69 20.8 48 8.7 46 46 SW 16 26 29.7 1006 10 16.0934 0 0
1:35 pm 13:35 Sunny 70 21.1 47 8.2 44 44 SSW 18 30 29.7 1006 10 16.0934 0 0
1:55 pm 13:55 Sunny 70 21.1 47 8.3 44 44 SSW 14 22 29.7 1006 10 16.0934 0 0
2:15 pm 14:15 Partly Cloudy 71 21.6 47 8.4 43 43 SW 12 19 29.69 1006 10 16.0934 0 0
2:35 pm 14:35 Cloudy 71 21.6 46 7.7 41 41 SW 13 20 29.68 1005 10 16.0934 0 0
2:55 pm 14:55 Mostly Cloudy 70 21 47 8.5 45 45 SW 13 20 29.7 1006 10 16.0934 0 0
3:15 pm 15:15 Partly Cloudy 70 21 48 9 46 46 SW 12 19 29.69 1005 10 16.0934 0 0
3:35 pm 15:35 Sunny 71 21.8 48 8.7 43 43 SW 16 26 29.67 1005 10 16.0934 0 0
3:55 pm 15:55 Sunny 72 22 46 7.9 40 40 S 22 35 29.66 1004 10 16.0934 0 0
4:15 pm 16:15 Sunny 70 21.2 46 7.6 42 42 SSW 18 30 29.67 1005 10 16.0934 0 0
4:35 pm 16:35 Partly Cloudy 70 21.2 45 7.2 41 41 S 15 24 29.66 1004 10 16.0934 0 0
4:55 pm 16:55 Partly Cloudy 70 21.3 48 8.7 45 45 S 13 20 29.65 1004 10 16.0934 0 0
5:15 pm 17:15 Sunny 70 21.1 48 9.1 46 46 SSE 9 15 29.64 1004 10 16.0934 0 0
5:35 pm 17:35 Sunny 69 20.8 49 9.2 48 48 S 14 22 29.65 1004 10 16.0934 0 0
5:55 pm 17:55 Sunny 69 20.3 49 9.3 49 49 S 10 17 29.65 1004 10 16.0934 0 0
6:15 pm 18:15 Sunny 69 20.3 49 9.5 50 50 S 10 17 29.65 1004 10 16.0934 0 0
6:35 pm 18:35 Sunny 68 20.1 49 9.6 51 51 SSE 13 20 29.65 1004 10 16.0934 0 0
6:55 pm 18:55 Sunny 67 19.5 49 9.5 53 53 SSE 12 19 29.65 1004 10 16.0934 0 0
7:15 pm 19:15 Sunny 65 18.6 50 9.8 57 57 S 9 15 29.68 1005 10 16.0934 0 0
7:35 pm 19:35 Sunny 63 17.1 52 11 68 68 SSE 14 22 29.69 1005 10 16.0934 0 0
7:55 pm 19:55 Sunny 62 16.5 52 10.9 70 70 SSE 14 22 29.71 1006 10 16.0934 0 0
8:15 pm 20:15 Clear 60 15.3 50 10.2 72 72 SE 10 17 29.72 1006 10 16.0934 0 0
8:35 pm 20:35 Clear 58 14.7 50 9.9 73 73 SE 12 19 29.72 1007 10 16.0934 0 0
8:55 pm 20:55 Clear 57 14 49 9.7 76 76 SE 10 17 29.74 1007 10 16.0934 0 0
9:15 pm 21:15 Clear 56 13.4 49 9.5 77 77 SE 12 19 29.74 1007 10 16.0934 0 0
9:35 pm 21:35 Clear 55 13 49 9.5 79 79 SE 10 17 29.76 1008 10 16.0934 0 0
9:55 pm 21:55 Clear 55 13 50 9.8 81 81 SE 12 19 29.77 1008 10 16.0934 0 0
10:15 pm 22:15 Partly Cloudy with Thunderstorms 55 13 50 10.2 83 83 SE 10 17 29.77 1008 10 16.0934 0 0
10:35 pm 22:35 Mostly Cloudy with Heavy Thunderstorms 56 13.1 51 10.6 85 85 SE 7 11 29.8 1009 7 11.26538 0.01 0.254
10:55 pm 22:55 Cloudy with Light Rain 55 12.8 52 11.2 90 90 ESE 10 17 29.8 1009 10 16.0934 0.04 1.016
11:15 pm 23:15 Cloudy with Light Thunderstorms 55 12.5 53 11.6 94 94 SSE 12 19 29.78 1008 10 16.0934 0.01 0.254
11:35 pm 23:35 Partly Cloudy 55 12.5 54 12.1 97 97 S 16 26 29.77 1008 10 16.0934 0.01 0.254
11:55 pm 23:55 Partly Cloudy with Light Rain 57 13.7 53 11.6 87 87 SSE 9 15 29.76 1008 10 16.0934 0.02 0.508

Powered by AerisWeather